Bettles Field, AK

12:28 PM AKDT on September 30, 2016 (GMT -0800)
Bettles

Weather History for PABT - January, 2014

Change the Weather History Date:

Thursday, January 16, 2014

  Actual Average Record
Temperature  
Mean Temperature -14 °F -  
Max Temperature -4 °F -5 °F 39 °F (2009)
Min Temperature -23 °F -22 °F -62 °F (1972)
Degree Days  
Heating Degree Days 78    
Moisture  
Dew Point -13 °F    
Average Humidity 72    
Maximum Humidity 83    
Minimum Humidity 54    
Precipitation  
Precipitation 0.00 in - - ()
Snow  
Snow 0.00 in - - ()
Snow Depth 23.00 in    
Sea Level Pressure  
Sea Level Pressure 29.81 in    
Wind  
Wind Speed 7 mph (NNW)    
Max Wind Speed 9 mph    
Max Gust Speed -    
Visibility 10 miles    
Events      
Averages and records for this station are not official NWS values.
T = Trace of Precipitation, MM = Missing Value Source: NWS Daily Summary

Daily Weather History Graph

Daily Weather History Graph

Search for Another Location

Airport or City:

Trip Planner

Search our weather history database for the weather conditions in past years. The results will help you decide how hot, cold, wet, or windy it might be!

Date:

Astronomy

Jan. 16, 2014 Rise Set
Actual Time 11:10 AM AKST 3:22 PM AKST
Civil Twilight 9:45 AM AKST 4:47 PM AKST
Nautical Twilight 8:32 AM AKST 6:00 PM AKST
Astronomical Twilight 7:27 AM AKST 7:05 PM AKST
Moon 5:32 PM AKST (1/16) 10:07 AM AKST (1/16)
Length of Visible Light 7h 01m
Length of Day
4h 12m
Full, 100% of the Moon is Illuminated
Jan 16
Full
Jan 23
Last Quarter
Jan 30
New
Feb 6
First Quarter
Feb 14
Full

Hourly Weather History & Observations

Time (AKST) Temp. Windchill Dew Point Humidity Pressure Visibility Wind Dir Wind Speed Gust Speed Precip Events Conditions
12:53 AM -7.1 °F -22.8 °F -13.0 °F 75% 29.88 in 10.0 mi NNW 8.1 mph - N/A   Mostly Cloudy
1:53 AM -7.1 °F -19.9 °F -11.9 °F 79% 29.87 in 10.0 mi NNW 5.8 mph - N/A   Overcast
2:53 AM -6.0 °F -21.5 °F -11.9 °F 75% 29.85 in 10.0 mi NNW 8.1 mph - N/A   Overcast
3:53 AM -6.0 °F -20.1 °F -11.9 °F 75% 29.83 in 10.0 mi NNW 6.9 mph - N/A   Overcast
4:53 AM -6.0 °F -21.5 °F -11.9 °F 75% 29.81 in 10.0 mi NNW 8.1 mph - N/A   Overcast
5:53 AM -6.0 °F -22.6 °F -13.0 °F 72% 29.79 in 10.0 mi NNW 9.2 mph - N/A   Overcast
6:53 AM -7.1 °F -22.8 °F -13.0 °F 75% 29.75 in 10.0 mi NW 8.1 mph - N/A   Overcast
7:53 AM -8.0 °F -21.0 °F -14.1 °F 75% 29.73 in 10.0 mi NW 5.8 mph - N/A   Overcast
8:53 AM -8.0 °F -22.5 °F -14.1 °F 75% 29.72 in 10.0 mi NW 6.9 mph - N/A   Overcast
9:53 AM -8.0 °F -22.5 °F -14.1 °F 75% 29.74 in 10.0 mi NNW 6.9 mph - N/A   Overcast
10:53 AM -8.0 °F -22.5 °F -13.0 °F 79% 29.74 in 10.0 mi NNW 6.9 mph - N/A   Overcast
11:53 AM -7.1 °F -19.9 °F -11.9 °F 79% 29.74 in 10.0 mi NW 5.8 mph - N/A   Overcast
12:53 PM -6.0 °F -21.5 °F -9.9 °F 83% 29.74 in 10.0 mi NNW 8.1 mph - N/A   Overcast
1:53 PM -4.0 °F -16.3 °F -9.0 °F 79% 29.75 in 10.0 mi NNW 5.8 mph - N/A   Overcast
2:53 PM -4.0 °F -19.0 °F -9.9 °F 76% 29.75 in 10.0 mi NNW 8.1 mph - N/A   Overcast
3:53 PM -5.1 °F -20.4 °F -11.9 °F 72% 29.76 in 10.0 mi NNW 8.1 mph - N/A   Overcast
4:53 PM -5.1 °F -19.1 °F -13.0 °F 69% 29.79 in 10.0 mi NW 6.9 mph - N/A   Overcast
5:53 PM -6.0 °F -14.7 °F -14.1 °F 68% 29.81 in 10.0 mi NNW 3.5 mph - N/A   Overcast
6:53 PM -7.1 °F - -14.1 °F 72% 29.84 in 10.0 mi Calm Calm - N/A   Overcast
7:53 PM -7.1 °F -15.9 °F -15.0 °F 68% 29.90 in 10.0 mi NNW 3.5 mph - N/A   Mostly Cloudy
8:53 PM -6.0 °F -14.7 °F -14.1 °F 68% 29.92 in 10.0 mi North 3.5 mph - N/A   Mostly Cloudy
9:53 PM -5.1 °F -19.1 °F -13.0 °F 69% 29.93 in 10.0 mi NNW 6.9 mph - N/A   Overcast
10:53 PM -5.1 °F -19.1 °F -13.0 °F 69% 29.94 in 10.0 mi NNW 6.9 mph - N/A   Overcast
11:53 PM -4.0 °F -20.2 °F -9.9 °F 76% 29.95 in 10.0 mi NNW 9.2 mph - N/A   Overcast